Temperature
27 28 29 28 28 28 29 29 30 30 30 31 30 29 28 27 26 26 25 24 23 22 22 21 21 21 21 20 20 20 19 19 19 19 18 18 18 17 17 17 17 17 17 16
26 27 27 28 28 28 29 29 29 30 30 31 29 28 27 26 26 25 25 24 23 22 22 21 21 21 20 20 20 19 19 19 19 19 18 18 18 17 17 17 17 17 17 16
26 27 26 26 28 28 29 29 29 29 30 29 29 27 26 25 25 25 24 24 23 22 22 21 21 20 20 20 20 19 19 19 18 18 18 18 17 17 17 16 16 16 16 16
25 25 24 27 29 28 28 29 29 29 29 28 28 27 26 25 24 24 24 23 22 22 21 21 21 20 20 20 19 19 18 18 18 18 18 17 17 17 17 16 16 16 16 16
25 25 25 27 27 27 27 27 28 28 27 27 26 26 26 24 24 23 23 22 22 21 21 21 20 20 20 19 19 19 18 18 18 18 18 17 17 17 17 16 16 16 15 15
24 24 25 26 26 26 26 26 26 26 26 26 25 27 27 24 22 22 22 21 21 21 21 20 20 20 19 19 19 18 18 18 18 18 17 17 17 17 16 16 16 15 15 14
23 24 26 26 25 25 25 25 24 24 24 24 25 25 24 22 21 21 20 21 21 20 20 20 20 19 19 19 18 18 18 18 17 17 17 17 17 16 16 16 15 15 14 14
23 23 24 24 24 25 24 23 22 22 23 22 22 22 21 21 20 20 20 20 20 20 19 19 19 19 18 18 18 18 18 17 17 17 16 16 16 16 15 15 15 14 14 13
23 24 22 22 22 21 21 21 21 21 21 21 21 21 20 20 19 19 19 19 19 19 19 19 19 18 18 18 18 17 17 17 17 16 16 16 16 15 15 15 14 14 14 13
22 22 21 21 20 20 20 20 20 20 20 20 20 20 19 19 19 19 19 19 19 19 18 18 18 18 18 18 18 17 17 17 16 16 16 15 15 15 14 14 14 14 14 13
21 21 21 20 20 19 19 19 19 19 19 19 19 19 18 18 18 18 18 18 18 18 18 18 18 17 17 17 17 17 17 16 16 15 15 15 15 14 14 14 14 13 13 13
21 20 21 20 19 18 18 18 18 18 18 18 18 18 18 18 17 17 17 17 17 17 17 17 17 17 17 17 17 17 16 16 15 15 15 14 14 14 14 14 14 13 13 13
18 18 18 18 17 17 17 17 17 17 17 17 17 17 17 17 17 17 17 17 17 17 16 16 16 16 16 16 16 16 16 15 15 15 14 14 14 14 13 13 13 13 13 12
16 16 17 17 17 17 17 17 17 17 17 17 17 17 17 16 16 16 16 16 16 16 16 16 16 16 16 16 16 16 15 15 15 14 14 14 14 13 13 13 13 12 12 12
16 16 16 16 16 16 16 16 16 16 16 16 16 16 16 16 16 16 16 16 15 16 16 16 15 15 15 15 15 15 15 15 14 14 14 14 13 13 13 13 13 12 12 11
16 16 16 16 16 16 16 16 16 16 16 16 16 15 15 15 15 15 15 15 15 15 15 15 15 15 15 15 15 15 14 14 14 14 14 13 13 13 13 13 12 12 12 11
15 16 16 16 16 16 16 16 16 16 16 15 15 15 15 15 15 15 15 15 15 15 15 15 14 15 15 14 14 14 14 14 14 14 13 13 13 13 13 12 12 12 11 11
15 15 15 15 15 15 15 15 15 15 15 15 15 14 14 14 14 14 14 14 14 14 14 14 14 14 14 14 14 14 14 14 13 13 13 13 13 13 12 12 12 11 11 11
15 15 15 15 15 15 15 15 15 15 15 15 15 14 14 14 14 14 14 14 14 14 14 14 14 14 14 14 14 14 14 13 13 13 12 12 12 12 12 12 11 11 11 10
14 14 14 14 14 14 14 14 14 14 14 14 14 14 14 14 14 14 14 14 14 14 14 14 14 14 14 13 13 13 13 13 12 12 12 12 12 11 11 11 11 11 11 10
14 13 14 14 14 14 14 14 14 14 14 14 14 14 14 13 13 13 13 13 13 13 13 13 14 14 13 13 13 13 12 12 12 12 12 12 11 11 11 11 11 10 10 10
13 13 13 13 13 13 13 13 13 13 13 13 13 13 13 13 13 13 13 13 13 13 13 13 13 13 13 13 13 12 12 12 12 12 11 11 11 11 11 11 10 10 10 10
12 12 13 13 13 13 13 13 13 13 13 13 13 13 13 13 13 13 13 13 13 13 13 13 13 13 13 13 12 12 12 12 11 11 11 11 11 11 11 10 10 10 10 10
12 12 12 12 12 12 12 12 12 12 12 12 12 12 12 12 12 13 13 13 13 13 13 13 13 13 12 12 12 12 11 11 11 11 11 10 10 10 10 10 10 10 10 9
11 11 12 12 12 12 12 12 12 12 12 12 12 12 12 12 12 12 12 12 12 12 12 12 12 12 12 12 11 11 11 11 11 10 10 10 10 10 10 10 10 10 9 9
11 11 11 11 11 11 11 12 12 12 12 12 12 12 12 12 12 12 12 12 12 12 12 12 12 12 11 11 11 11 11 11 10 10 10 10 10 10 10 10 9 9 9 9
11 11 11 11 11 11 11 11 11 11 11 11 11 11 11 11 11 11 11 11 11 11 11 11 11 11 11 11 11 10 10 10 10 10 10 10 10 10 10 9 9 9 9 9
Wind_Speed
10 7 9 13 14 15 16 15 14 12 12 9 6 5 4 4 6 8 9 9 10 10 10 10 10 10 10 9 9 9 9 8 8 7 7 6 6 6 6 6 6 6 5 5
11 10 11 13 15 16 17 16 16 14 13 7 4 4 5 6 7 8 9 10 10 11 11 11 11 11 11 10 9 9 9 9 8 8 8 7 7 7 6 6 6 6 5 5
13 11 11 16 16 17 16 16 15 15 11 6 6 6 6 6 7 8 8 9 10 11 11 11 11 11 12 11 10 10 8 9 9 9 9 8 8 7 7 7 6 6 6 6
10 10 15 10 7 11 14 14 13 12 9 8 7 6 6 6 7 7 8 9 9 10 11 11 11 11 11 12 11 11 9 10 10 10 10 9 8 8 7 6 6 6 6 6
11 14 13 8 6 8 11 11 9 9 9 8 6 6 6 5 5 6 7 7 8 10 11 11 12 12 13 13 13 12 11 11 11 11 10 10 9 8 7 7 7 6 6 6
11 14 14 8 5 4 7 11 5 5 6 6 5 8 6 3 3 3 4 6 8 9 10 11 12 13 14 14 13 13 11 11 11 10 10 10 9 9 8 7 7 7 6 6
14 13 10 3 4 6 10 4 0 4 5 5 6 6 3 2 2 3 4 6 8 9 10 11 12 13 13 13 12 12 11 11 11 10 10 10 9 8 8 7 7 6 7 6
12 13 9 3 4 6 2 3 2 3 4 5 5 4 2 2 2 3 4 6 8 9 10 10 12 12 12 12 11 11 12 12 11 11 10 9 9 8 8 8 8 7 7 6
8 6 1 2 2 2 3 4 4 4 5 5 5 4 2 2 2 3 4 6 7 9 10 10 11 11 11 11 11 12 13 12 11 11 9 9 9 9 8 7 6 6 6 6
6 6 4 4 3 4 4 5 5 5 5 4 4 3 2 2 2 2 3 5 7 9 10 10 10 10 10 11 12 12 12 12 11 11 10 9 7 7 6 6 6 6 6 6
9 6 5 6 4 4 5 5 4 4 4 4 3 3 3 3 3 3 3 4 6 7 8 9 9 9 10 12 13 12 12 12 11 11 10 9 7 5 5 4 3 3 5 5
7 4 5 5 4 5 5 5 4 4 4 4 4 4 3 3 2 3 3 4 5 7 8 8 9 9 9 11 12 13 11 11 9 9 9 9 9 7 10 7 9 8 7 3
6 6 6 6 6 6 6 5 5 4 4 4 4 3 3 3 3 3 4 4 5 6 7 8 9 9 9 10 11 12 11 10 9 9 9 9 9 9 8 7 9 9 8 7
7 6 7 6 6 6 5 5 5 4 4 3 4 3 3 3 3 4 4 4 4 6 7 8 9 9 9 10 11 11 11 10 9 8 8 8 8 8 8 9 8 6 6 8
9 8 8 7 6 6 5 5 5 4 3 3 3 4 4 4 4 4 4 4 4 5 7 8 9 9 9 10 11 11 10 9 8 8 8 7 8 8 8 8 8 8 7 7
8 8 7 6 6 6 6 6 5 5 4 4 3 4 4 4 4 3 3 4 6 6 6 8 8 8 9 10 11 9 8 9 9 8 8 8 7 8 8 8 7 7 7 7
9 8 6 6 6 6 6 6 6 6 5 5 4 4 4 5 4 4 4 4 5 6 6 7 8 8 8 9 10 8 9 9 10 8 8 8 7 7 7 7 7 7 6 6
10 9 7 6 5 5 6 6 6 5 5 4 4 5 5 6 5 5 5 6 6 6 6 6 7 8 8 8 8 7 8 9 8 7 7 7 7 7 7 7 8 7 7 7
8 7 7 7 7 6 6 5 5 5 5 5 5 5 5 5 5 5 6 6 7 6 5 6 7 8 8 8 8 7 8 8 8 7 7 8 7 7 7 7 7 7 7 7
5 5 5 5 5 5 5 4 4 4 4 4 5 5 5 5 6 6 6 5 4 4 6 7 8 8 8 8 7 7 8 8 8 8 8 8 8 7 7 7 7 7 7 7
3 3 3 2 2 3 3 4 4 4 4 5 6 6 5 5 5 6 6 5 5 5 7 8 8 7 7 8 8 7 7 8 8 8 7 7 7 7 7 7 7 7 7 6
1 2 1 1 1 1 2 2 2 3 4 5 5 5 5 5 6 5 5 4 5 6 6 7 7 8 8 8 8 7 7 8 7 7 7 7 7 7 7 7 7 7 7 7
1 1 1 1 1 1 1 2 2 3 3 4 4 4 5 4 5 5 5 4 5 7 6 6 7 10 9 8 7 7 7 8 7 7 7 7 7 7 7 8 7 7 7 6
1 0 0 1 1 2 2 2 2 2 3 2 3 3 5 5 4 4 4 6 6 7 6 7 9 9 8 6 7 7 7 7 7 7 7 7 7 7 7 7 7 7 6 7
1 0 0 1 2 2 2 3 3 3 3 2 3 3 3 4 4 5 5 6 8 8 7 8 10 9 7 6 7 7 7 7 7 7 7 7 7 7 7 7 7 6 6 6
1 0 0 1 1 1 2 2 2 3 3 3 3 2 3 3 4 5 5 7 8 8 7 7 8 8 7 7 7 7 7 8 8 7 7 7 8 8 7 7 8 6 6 5
0 0 0 1 0 1 1 2 2 3 3 3 3 3 3 3 4 5 6 6 6 7 6 6 7 7 7 7 7 7 7 7 7 7 8 7 7 7 7 8 6 6 6 6
Wind_Direction
245 246 227 222 220 219 227 236 242 240 246 246 232 227 223 206 192 187 182 181 178 175 171 169 166 164 163 159 159 158 157 156 153 150 142 136 132 130 128 127 123 119 115 109
228 232 234 235 228 225 229 236 242 248 248 255 245 224 217 214 203 197 189 185 180 177 174 174 172 169 163 159 158 157 161 158 152 148 143 140 134 130 127 126 121 118 114 109
227 220 232 234 228 226 229 232 238 242 247 244 236 229 223 215 210 204 194 186 182 179 178 177 176 170 164 161 161 158 161 161 154 152 147 144 140 135 132 129 124 119 114 108
231 216 230 230 217 228 233 234 238 250 256 250 249 242 234 218 214 211 197 188 185 182 177 176 173 170 165 161 161 162 168 165 159 156 150 147 143 137 134 132 128 123 121 118
228 225 229 216 212 222 229 234 239 247 258 259 258 238 225 214 213 209 202 194 188 184 177 172 172 169 165 166 167 167 169 164 160 157 153 151 148 144 142 140 136 136 131 126
226 232 227 210 183 217 232 230 220 242 251 248 239 242 237 201 216 210 197 192 186 179 171 170 171 169 169 171 171 171 168 164 158 156 155 156 154 151 147 144 140 137 127 124
228 233 232 197 176 195 222 225 273 253 249 244 247 281 308 253 223 204 193 188 180 175 173 171 171 172 174 174 174 168 160 158 159 159 158 156 153 150 148 142 133 128 127 124
223 230 221 130 188 217 278 349 311 289 273 269 278 300 280 231 213 196 187 182 178 174 171 168 171 173 175 175 170 163 158 158 159 161 159 153 149 147 147 143 145 144 139 134
223 230 111 169 226 287 304 295 300 295 293 283 280 285 271 246 222 195 189 181 178 174 169 168 173 177 175 168 163 162 160 159 158 156 152 152 152 151 153 157 160 158 157 150
233 221 215 225 256 288 291 289 293 290 289 280 273 270 255 247 218 190 187 181 177 175 173 170 173 176 170 162 161 161 162 158 156 154 153 150 154 156 161 164 167 165 162 155
231 232 234 233 258 284 299 298 296 296 289 272 269 255 244 227 198 186 185 182 171 172 172 167 167 170 166 162 163 162 162 159 161 161 153 148 146 135 154 141 144 166 161 157
235 229 246 247 275 290 293 293 295 296 289 271 259 247 235 210 184 173 177 175 168 168 168 166 165 164 162 164 164 162 163 164 163 160 156 152 146 125 65 78 78 63 50 75
268 273 276 273 277 284 283 287 287 280 271 263 259 237 214 200 187 175 174 179 179 175 169 167 166 166 166 165 165 165 164 164 163 162 160 159 159 154 141 102 84 81 80 78
266 266 264 264 273 277 275 275 274 272 264 254 244 217 194 185 182 179 183 186 177 170 165 164 166 166 165 165 162 161 162 159 162 161 160 161 162 162 159 155 150 137 111 106
256 257 259 263 262 264 263 259 256 258 262 260 231 200 183 179 181 180 179 176 166 164 159 159 161 160 158 161 160 161 160 160 161 157 157 158 160 162 158 156 152 148 144 133
262 258 253 251 251 254 257 254 250 249 255 251 223 195 180 173 167 160 175 175 167 162 155 155 155 153 153 156 156 156 154 147 154 156 156 158 161 159 154 154 155 155 156 154
249 245 244 248 253 255 255 251 245 244 241 234 207 182 170 162 156 161 170 167 162 152 148 150 149 149 154 156 155 153 150 149 155 157 158 157 157 158 155 156 157 159 159 151
251 251 246 248 257 264 263 250 238 236 231 215 186 178 177 173 172 170 167 162 151 144 145 144 142 145 151 154 154 152 149 151 156 155 153 154 155 155 156 158 160 161 157 151
248 247 245 247 251 251 252 244 235 233 225 207 187 185 184 178 176 171 164 160 155 154 150 141 141 149 149 148 147 146 147 149 150 152 151 147 152 155 158 159 160 161 159 158
251 248 248 249 249 246 243 233 222 216 210 195 186 181 183 185 175 166 165 166 167 160 150 147 149 149 146 145 149 148 149 153 155 156 157 156 157 157 159 158 158 161 165 167
255 253 254 249 241 240 231 218 208 201 193 186 188 186 186 184 169 164 166 165 158 152 151 149 154 151 148 147 152 149 151 155 157 158 159 158 156 156 158 158 161 165 167 172
291 270 240 221 203 198 193 183 187 181 177 178 181 185 182 172 166 162 170 172 162 158 160 157 155 140 140 144 151 151 155 157 155 155 156 157 158 160 163 166 167 170 174 177
295 270 188 165 157 147 128 131 144 156 169 174 178 178 172 167 169 165 164 166 165 158 159 153 138 132 140 150 151 153 155 156 155 155 157 161 163 166 168 169 171 173 174 176
287 246 152 131 125 125 125 118 119 129 129 133 144 139 148 149 151 158 151 139 141 143 149 135 131 141 158 156 153 153 156 156 156 157 160 164 167 169 170 170 171 171 174 180
267 270 173 135 133 142 142 143 137 133 128 126 120 118 132 141 149 149 142 141 139 143 151 142 144 153 160 156 156 157 159 156 156 159 163 165 169 172 173 173 174 175 179 183
279 267 133 133 134 169 166 157 148 144 144 139 125 116 118 125 134 140 142 145 146 149 155 151 153 160 159 158 159 159 158 155 159 166 166 167 171 174 173 171 174 179 181 182
331 357 108 95 89 144 145 140 140 145 146 139 132 129 129 136 142 143 144 148 153 157 158 155 156 158 159 159 160 163 166 166 167 170 172 174 174 174 174 176 177 178 182 182
Height
1488 1484 1485 1489 1491 1492 1494 1491 1495 1492 1489 1485 1487 1492 1495 1498 1500 1503 1506 1508 1510 1513 1515 1518 1520 1522 1525 1527 1530 1532 1533 1535 1536 1537 1538 1539 1540 1540 1541 1542 1543 1543 1544 1544
1493 1488 1488 1489 1487 1488 1489 1488 1488 1488 1488 1484 1488 1492 1495 1497 1498 1501 1503 1505 1508 1510 1513 1515 1517 1520 1522 1525 1527 1529 1532 1534 1535 1536 1537 1538 1539 1540 1541 1542 1542 1543 1543 1544
1493 1489 1491 1493 1484 1484 1485 1483 1485 1488 1485 1485 1488 1491 1493 1495 1496 1498 1500 1503 1505 1507 1509 1512 1514 1517 1519 1522 1525 1527 1530 1532 1534 1535 1536 1537 1539 1540 1541 1541 1542 1543 1544 1544
1490 1494 1504 1482 1475 1478 1480 1480 1481 1482 1483 1485 1488 1490 1492 1493 1495 1496 1498 1500 1503 1505 1506 1509 1512 1514 1517 1520 1522 1524 1527 1529 1531 1533 1535 1536 1538 1539 1540 1541 1542 1543 1543 1544
1490 1493 1488 1480 1478 1479 1482 1482 1481 1483 1484 1486 1487 1488 1489 1491 1493 1494 1496 1498 1500 1502 1504 1506 1508 1511 1513 1517 1519 1521 1524 1526 1529 1531 1533 1535 1536 1538 1539 1541 1541 1543 1543 1544
1490 1493 1492 1478 1476 1480 1482 1484 1482 1484 1485 1486 1486 1484 1483 1488 1490 1492 1494 1495 1497 1499 1501 1503 1505 1508 1510 1513 1516 1518 1521 1524 1527 1529 1531 1533 1535 1536 1538 1540 1541 1543 1543 1544
1488 1488 1477 1474 1477 1480 1487 1482 1482 1483 1484 1485 1485 1485 1486 1486 1488 1489 1490 1492 1494 1496 1498 1500 1502 1505 1508 1510 1513 1515 1519 1522 1525 1527 1529 1531 1533 1535 1537 1538 1540 1541 1542 1543
1485 1487 1481 1477 1477 1479 1481 1482 1483 1483 1484 1485 1485 1485 1485 1485 1486 1486 1487 1489 1491 1493 1495 1497 1499 1502 1505 1508 1511 1514 1517 1520 1523 1525 1528 1530 1532 1534 1536 1537 1539 1541 1542 1543
1477 1478 1478 1478 1480 1482 1482 1483 1483 1483 1483 1483 1483 1483 1483 1484 1484 1484 1485 1486 1489 1491 1492 1494 1497 1500 1503 1506 1509 1511 1514 1517 1520 1523 1526 1528 1530 1532 1534 1536 1539 1541 1542 1543
1477 1475 1478 1479 1480 1481 1481 1481 1481 1481 1481 1481 1481 1481 1481 1481 1482 1482 1483 1484 1486 1489 1490 1492 1494 1498 1500 1503 1506 1509 1512 1515 1518 1520 1523 1526 1528 1531 1533 1535 1538 1540 1541 1542
1475 1476 1477 1478 1479 1480 1480 1479 1479 1479 1479 1479 1479 1479 1479 1479 1480 1480 1481 1483 1483 1486 1488 1490 1493 1495 1498 1500 1503 1506 1509 1511 1515 1518 1520 1523 1526 1529 1531 1534 1536 1538 1540 1541
1471 1475 1475 1476 1478 1478 1478 1477 1477 1477 1477 1477 1477 1477 1477 1477 1477 1478 1479 1480 1481 1483 1485 1487 1490 1492 1495 1498 1500 1503 1506 1509 1513 1515 1518 1521 1524 1527 1529 1531 1533 1536 1537 1539
1475 1475 1475 1475 1476 1476 1476 1475 1475 1475 1475 1475 1475 1475 1474 1475 1475 1476 1477 1478 1480 1481 1483 1484 1487 1489 1492 1495 1498 1501 1504 1507 1511 1514 1517 1520 1523 1525 1527 1530 1532 1534 1536 1537
1474 1474 1473 1473 1473 1473 1473 1473 1473 1472 1472 1472 1472 1473 1473 1473 1474 1474 1476 1477 1478 1479 1481 1482 1485 1487 1489 1492 1495 1498 1502 1505 1509 1512 1515 1518 1521 1524 1526 1528 1530 1532 1534 1536
1471 1471 1470 1470 1470 1470 1470 1470 1470 1469 1470 1470 1470 1470 1471 1471 1472 1473 1474 1476 1477 1478 1479 1480 1482 1485 1488 1490 1493 1496 1499 1503 1507 1510 1513 1516 1519 1522 1525 1527 1529 1531 1533 1535
1467 1467 1466 1465 1465 1466 1466 1467 1466 1466 1467 1467 1468 1468 1469 1469 1470 1470 1473 1474 1475 1476 1477 1479 1481 1484 1486 1489 1492 1494 1498 1501 1504 1507 1511 1514 1517 1520 1522 1525 1527 1529 1532 1534
1463 1462 1462 1462 1462 1462 1462 1463 1464 1464 1465 1465 1465 1466 1467 1467 1468 1469 1471 1472 1473 1475 1477 1479 1481 1483 1485 1488 1491 1493 1496 1500 1503 1506 1508 1511 1514 1517 1520 1523 1525 1528 1530 1532
1459 1459 1459 1459 1459 1458 1458 1459 1460 1461 1461 1462 1463 1464 1465 1466 1466 1468 1470 1471 1472 1474 1476 1478 1480 1482 1485 1488 1490 1493 1495 1498 1501 1504 1506 1509 1512 1515 1517 1520 1523 1526 1528 1530
1455 1455 1456 1456 1456 1456 1455 1455 1456 1458 1459 1460 1461 1462 1464 1465 1465 1467 1468 1470 1471 1473 1475 1477 1479 1482 1484 1486 1489 1491 1494 1497 1499 1502 1505 1508 1510 1513 1516 1519 1521 1524 1526 1528
1451 1452 1452 1453 1453 1453 1453 1453 1455 1456 1457 1458 1459 1461 1462 1463 1464 1465 1467 1468 1470 1472 1474 1476 1479 1481 1483 1485 1488 1490 1493 1496 1498 1501 1504 1506 1509 1512 1515 1517 1520 1522 1524 1527
1448 1448 1449 1449 1450 1450 1451 1452 1453 1454 1455 1456 1458 1459 1460 1461 1461 1463 1465 1468 1470 1472 1474 1476 1478 1480 1482 1484 1487 1490 1492 1495 1497 1500 1502 1505 1508 1511 1513 1516 1518 1520 1523 1525
1446 1446 1446 1446 1447 1448 1449 1450 1451 1452 1453 1454 1455 1456 1457 1458 1460 1462 1464 1466 1469 1471 1473 1475 1477 1479 1481 1483 1486 1489 1491 1494 1496 1499 1501 1504 1507 1509 1512 1514 1517 1519 1521 1523
1445 1445 1444 1445 1445 1446 1447 1448 1449 1450 1451 1452 1452 1453 1454 1455 1458 1460 1462 1465 1468 1470 1472 1474 1476 1478 1480 1483 1485 1487 1490 1492 1495 1498 1500 1503 1506 1508 1511 1513 1515 1518 1520 1521
1444 1444 1444 1444 1445 1446 1446 1448 1448 1449 1449 1450 1450 1451 1452 1454 1457 1459 1461 1464 1466 1469 1471 1473 1475 1477 1480 1482 1484 1487 1489 1491 1494 1496 1499 1502 1505 1507 1510 1512 1514 1516 1517 1519
1443 1443 1444 1444 1445 1445 1446 1447 1448 1449 1449 1450 1451 1452 1453 1455 1457 1459 1461 1463 1465 1468 1470 1472 1474 1476 1479 1481 1484 1486 1488 1490 1493 1496 1498 1501 1504 1506 1508 1510 1512 1514 1515 1517
1443 1443 1443 1444 1444 1445 1446 1447 1448 1449 1450 1451 1452 1452 1454 1455 1456 1458 1460 1463 1465 1467 1469 1471 1473 1475 1478 1480 1482 1485 1487 1490 1492 1495 1497 1500 1502 1505 1507 1508 1510 1512 1513 1515
1442 1442 1442 1443 1444 1445 1446 1447 1448 1449 1450 1451 1452 1453 1454 1455 1457 1458 1460 1463 1465 1466 1468 1470 1472 1475 1477 1479 1481 1484 1487 1489 1491 1494 1496 1499 1501 1503 1505 1506 1508 1510 1512 1513